LOT458 ESSA-EPWA

Flight info

Callsign LOT458
Flight time N/A
Altitude 36000
Route BABAP DCT NEPVA DCT PENOR/N0457F370 DCT LASGU DCT SORIX
Aircraft E195/M-SDE3GILORVW/S

Departure

Time N/A
Airport Stockholm-Arlanda Airport (ESSA)

Arrival

Time 2026-05-05 20:36
Airport Warsaw Chopin Airport (EPWA)
Time Latitude Longitude Altitude Speed Heading
2026-05-05 19:57 54.78577 17.90035 35921 ft 456 kts 161°
2026-05-05 19:57 54.74762 17.93260 35915 ft 456 kts 161°
2026-05-05 19:58 54.69051 17.98073 35918 ft 456 kts 161°
2026-05-05 19:58 54.63380 18.02837 35919 ft 456 kts 161°
2026-05-05 19:59 54.57668 18.07620 35921 ft 457 kts 161°
2026-05-05 19:59 54.51945 18.12400 35910 ft 456 kts 161°
2026-05-05 20:00 54.47180 18.16368 35912 ft 456 kts 161°
2026-05-05 20:00 54.40528 18.21887 35913 ft 456 kts 161°
2026-05-05 20:01 54.34820 18.26606 35927 ft 455 kts 161°
2026-05-05 20:01 54.30113 18.30490 35905 ft 455 kts 161°
2026-05-05 20:02 54.24397 18.35191 35888 ft 455 kts 161°
2026-05-05 20:02 54.18688 18.39873 35922 ft 455 kts 161°
2026-05-05 20:03 54.12997 18.44527 35912 ft 455 kts 161°
2026-05-05 20:03 54.07285 18.49178 35901 ft 454 kts 161°
2026-05-05 20:04 54.01583 18.53812 35911 ft 454 kts 161°
2026-05-05 20:04 53.95906 18.58412 35902 ft 454 kts 161°
2026-05-05 20:05 53.90198 18.63022 35900 ft 454 kts 161°
2026-05-05 20:05 53.84488 18.67617 35887 ft 454 kts 160°
2026-05-05 20:06 53.78769 18.72209 35877 ft 454 kts 160°
2026-05-05 20:06 53.73106 18.76739 35901 ft 453 kts 160°
2026-05-05 20:07 53.67391 18.81297 35882 ft 453 kts 160°
2026-05-05 20:07 53.61681 18.85840 35896 ft 453 kts 160°
2026-05-05 20:08 53.56007 18.90342 35882 ft 453 kts 160°
2026-05-05 20:08 53.50302 18.94852 35870 ft 453 kts 160°
2026-05-05 20:09 53.44609 18.99340 35884 ft 452 kts 160°
2026-05-05 20:09 53.41760 19.01579 35880 ft 452 kts 160°
2026-05-05 20:11 53.32133 19.09127 35876 ft 452 kts 160°
2026-05-05 20:12 53.26466 19.13552 35565 ft 454 kts 160°
2026-05-05 20:12 53.23630 19.15837 35089 ft 452 kts 157°
2026-05-05 20:12 53.21809 19.17523 34771 ft 453 kts 155°
2026-05-05 20:12 53.20840 19.18463 34606 ft 454 kts 154°
2026-05-05 20:13 53.18212 19.21421 34121 ft 458 kts 147°
2026-05-05 20:13 53.15666 19.24601 33638 ft 458 kts 148°
2026-05-05 20:13 53.13103 19.27822 33128 ft 460 kts 147°
2026-05-05 20:13 53.10581 19.30991 32628 ft 460 kts 147°
2026-05-05 20:14 53.08019 19.34218 32135 ft 460 kts 147°
2026-05-05 20:14 53.05461 19.37425 31649 ft 461 kts 147°
2026-05-05 20:14 53.02898 19.40640 31172 ft 461 kts 147°
2026-05-05 20:14 53.00335 19.43846 30702 ft 462 kts 147°
2026-05-05 20:15 52.97762 19.47058 30238 ft 462 kts 147°
2026-05-05 20:15 52.95191 19.50268 29761 ft 463 kts 147°
2026-05-05 20:15 52.92610 19.53477 29225 ft 463 kts 147°
2026-05-05 20:15 52.90049 19.56668 28664 ft 454 kts 147°
2026-05-05 20:16 52.87585 19.59717 28110 ft 442 kts 147°
2026-05-05 20:16 52.85148 19.62744 27548 ft 430 kts 147°
2026-05-05 20:16 52.82772 19.65685 27008 ft 422 kts 147°
2026-05-05 20:16 52.80454 19.68544 26498 ft 422 kts 147°
2026-05-05 20:17 52.78098 19.71456 25992 ft 423 kts 147°
2026-05-05 20:17 52.75751 19.74346 25503 ft 420 kts 147°
2026-05-05 20:17 52.73419 19.77221 25008 ft 416 kts 147°
2026-05-05 20:17 52.71208 19.80271 24522 ft 417 kts 137°
2026-05-05 20:18 52.69965 19.82696 24209 ft 417 kts 131°
2026-05-05 20:18 52.67684 19.87779 23590 ft 415 kts 128°
2026-05-05 20:18 52.66008 19.91618 23069 ft 408 kts 136°
2026-05-05 20:18 52.63891 19.94637 22524 ft 400 kts 146°
2026-05-05 20:19 52.62414 19.96456 22174 ft 397 kts 147°
2026-05-05 20:19 52.60203 19.99160 21647 ft 394 kts 147°
2026-05-05 20:19 52.58036 20.01891 21164 ft 391 kts 146°
2026-05-05 20:19 52.55900 20.04635 20760 ft 388 kts 145°
2026-05-05 20:20 52.53788 20.07384 20368 ft 387 kts 144°
2026-05-05 20:20 52.51801 20.10387 19963 ft 387 kts 139°
2026-05-05 20:20 52.49849 20.13411 19579 ft 386 kts 139°
2026-05-05 20:20 52.47911 20.16492 19191 ft 387 kts 139°
2026-05-05 20:21 52.45976 20.19554 18814 ft 386 kts 139°
2026-05-05 20:21 52.44055 20.22603 18344 ft 382 kts 139°
2026-05-05 20:21 52.42191 20.25549 17846 ft 373 kts 139°
2026-05-05 20:21 52.40345 20.28465 17281 ft 365 kts 139°
2026-05-05 20:22 52.38532 20.31328 16751 ft 358 kts 139°
2026-05-05 20:22 52.36749 20.34130 16224 ft 352 kts 139°
2026-05-05 20:22 52.34988 20.36901 15715 ft 351 kts 140°
2026-05-05 20:22 52.33224 20.39668 15219 ft 350 kts 140°
2026-05-05 20:23 52.31472 20.42421 14722 ft 348 kts 140°
2026-05-05 20:23 52.29730 20.45149 14245 ft 345 kts 140°
2026-05-05 20:23 52.28004 20.47850 13770 ft 342 kts 140°
2026-05-05 20:23 52.26289 20.50529 13255 ft 340 kts 140°
2026-05-05 20:24 52.24603 20.53157 12741 ft 338 kts 140°
2026-05-05 20:24 52.22916 20.55795 12215 ft 329 kts 140°
2026-05-05 20:24 52.21337 20.58260 11654 ft 305 kts 141°
2026-05-05 20:24 52.19821 20.60612 11062 ft 291 kts 141°
2026-05-05 20:25 52.18388 20.62842 10487 ft 285 kts 141°
2026-05-05 20:25 52.16953 20.65069 9950 ft 283 kts 141°
2026-05-05 20:25 52.15536 20.67259 9390 ft 279 kts 140°
2026-05-05 20:25 52.14138 20.69439 8818 ft 277 kts 140°
2026-05-05 20:26 52.12761 20.71570 8266 ft 275 kts 140°
2026-05-05 20:26 52.11399 20.73682 7719 ft 273 kts 141°
2026-05-05 20:26 52.10026 20.75801 7189 ft 271 kts 141°
2026-05-05 20:26 52.08659 20.77912 6647 ft 269 kts 141°
2026-05-05 20:27 52.07305 20.80007 6119 ft 267 kts 141°
2026-05-05 20:27 52.05961 20.82077 5569 ft 266 kts 141°
2026-05-05 20:27 52.04626 20.84138 5396 ft 262 kts 141°
2026-05-05 20:27 52.03357 20.86097 5222 ft 244 kts 141°
2026-05-05 20:28 52.02126 20.87981 5055 ft 243 kts 141°
2026-05-05 20:28 52.00909 20.89848 4900 ft 244 kts 141°
2026-05-05 20:28 51.99683 20.91733 4753 ft 243 kts 141°
2026-05-05 20:28 51.98454 20.93621 4603 ft 243 kts 141°
2026-05-05 20:29 51.97206 20.95534 4460 ft 244 kts 141°
2026-05-05 20:29 51.95993 20.97396 4292 ft 244 kts 141°
2026-05-05 20:29 51.94752 20.99329 4146 ft 246 kts 137°
2026-05-05 20:29 51.93944 21.01797 4052 ft 256 kts 104°
2026-05-05 20:30 51.94045 21.04627 3999 ft 253 kts 70°
2026-05-05 20:30 51.94826 21.07139 3999 ft 249 kts 62°
2026-05-05 20:30 51.95641 21.09639 3926 ft 251 kts 62°
2026-05-05 20:30 51.96688 21.11853 3832 ft 248 kts 35°
2026-05-05 20:31 51.98186 21.12834 3778 ft 217 kts 358°
2026-05-05 20:31 51.99549 21.12240 3714 ft 199 kts 317°
2026-05-05 20:31 52.00591 21.10786 3662 ft 203 kts 315°
2026-05-05 20:31 52.01817 21.09583 3359 ft 207 kts 328°
2026-05-05 20:32 52.03079 21.08540 3095 ft 198 kts 324°
2026-05-05 20:32 52.04230 21.07466 2808 ft 183 kts 325°
2026-05-05 20:32 52.05326 21.06541 2556 ft 172 kts 325°
2026-05-05 20:32 52.06352 21.05636 2336 ft 164 kts 323°
2026-05-05 20:33 52.07348 21.04762 2113 ft 160 kts 328°
2026-05-05 20:33 52.08287 21.03954 1875 ft 149 kts 329°
2026-05-05 20:33 52.08911 21.03409 1723 ft 142 kts 328°
2026-05-05 20:33 52.09759 21.02652 1530 ft 140 kts 329°
2026-05-05 20:34 52.10618 21.01917 1360 ft 140 kts 336°
2026-05-05 20:34 52.11483 21.01167 1204 ft 142 kts 333°
2026-05-05 20:34 52.12359 21.00389 1047 ft 145 kts 333°
2026-05-05 20:34 52.13247 20.99611 862 ft 145 kts 332°
2026-05-05 20:35 52.14149 20.98811 660 ft 151 kts 333°
2026-05-05 20:35 52.15070 20.98034 479 ft 145 kts 332°
2026-05-05 20:35 52.15941 20.97262 351 ft 135 kts 332°
2026-05-05 20:35 52.16581 20.96704 339 ft 79 kts 331°
2026-05-05 20:36 52.16895 20.96512 337 ft 24 kts 356°
2026-05-05 20:36 52.17006 20.96513 332 ft 14 kts
2026-05-05 20:36 52.17076 20.96535 337 ft 5 kts 39°
2026-05-05 20:36 52.17099 20.96596 336 ft 11 kts 61°
2026-05-05 20:37 52.17138 20.96714 337 ft 12 kts 63°
2026-05-05 20:37 52.17156 20.96835 337 ft 12 kts 123°
2026-05-05 20:37 52.17071 20.96915 336 ft 17 kts 151°
2026-05-05 20:37 52.16963 20.97008 337 ft 18 kts 153°
2026-05-05 20:38 52.16854 20.97109 337 ft 18 kts 152°
2026-05-05 20:38 52.16836 20.97190 337 ft 8 kts 76°
2026-05-05 20:38 52.16848 20.97276 336 ft 5 kts 77°
2026-05-05 20:38 52.16849 20.97285 335 ft 0 kts 76°